Main page
Satellite images Climate Cyclones Lightning AirportsFAQ Languages Contact Newsletter About
Weather : Europe Africa North America South America Asia Australia-Oceania Others

macau-cn, Macau, Macau International Airport

45005

latitude: , longitude: China, elevation: 22-10N m


METAR: VMMC 181700Z 05004KT 360V070 CAVOK 26/21 Q1016 NOSIG